Regional Weather Roundup
Issued by NWS

Home | Current Version | Previous Version | Text Only | Print | Product List | Glossary Off
Versions: 1 2 3 4 5 6 7 8 9 10 11 12 13 14 15 16 17 18 19 20 21 22 23 24 25 26 27 28 29 30 31 32 33 34 35 36 37 38 39 40 41 42 43 44 45 46 47 48 49 50

000
ASUS43 KLMK 301310
RWRKY
KENTUCKY REGIONAL WEATHER ROUNDUP
NATIONAL WEATHER SERVICE LOUISVILLE KY
900 AM EDT SAT APR 30 2016

NOTE "FAIR" INDICATES FEW OR NO CLOUDS BELOW 12,000 FEET
WITH NO SIGNIFICANT WEATHER AND/OR OBSTRUCTIONS TO VISIBILITY.

KYZ001>023-026-027-061>063-070>075-301400-
WESTERN AND SOUTH CENTRAL KENTUCKY

CITY           SKY/WX    TMP DP  RH WIND       PRES   REMARKS
PADUCAH        LGT RAIN  62  60  93 SE3       29.87R FOG
HENDERSON      PTSUNNY   57  54  88 SE8       29.91F
OWENSBORO      HVY RAIN  59  59 100 CALM      29.96R FOG
HOPKINSVILLE   TSTM      61  61 100 E3        29.92R FOG
BOWLING GREEN  RAIN      60  59  96 NE7       29.95F FOG
GLASGOW        LGT RAIN  60  55  84 N5        29.97R
$$

KYZ024-025-028>034-038-045-046-053-301400-
NORTH CENTRAL KENTUCKY

CITY           SKY/WX    TMP DP  RH WIND       PRES   REMARKS
LOUISVILLE/SDF RAIN      60  54  80 S3        29.99R
LOUISVILLE/LOU LGT RAIN  60  52  74 VRB3      29.99R
FORT KNOX      LGT RAIN  58  56  92 CALM      29.97R
$$

KYZ035>037-039>044-047>052-055>060-089>105-301400-
NORTHEAST KENTUCKY

CITY           SKY/WX    TMP DP  RH WIND       PRES   REMARKS
LEXINGTON      CLOUDY    60  52  74 E10       29.97S
COVINGTON      CLOUDY    53  49  86 NE12      30.00F
FRANKFORT      PTSUNNY   59  51  75 E10       29.96R
$$

KYZ054-064>069-076>088-106>120-301400-
SOUTHEAST KENTUCKY

CITY           SKY/WX    TMP DP  RH WIND       PRES   REMARKS
JACKSON        MOSUNNY   58  51  78 CALM      29.99F
LONDON         MOSUNNY   61  52  72 E6        29.96F
SOMERSET       CLOUDY    61  52  72 CALM      29.97R
MIDDLESBORO    CLOUDY    62  56  81 CALM      29.98S
MONTICELLO     CLOUDY    64  55  72 W9        29.97R
$$




USA.gov is the U.S. government's official web portal to all federal, state and local government web resources and services.